FW9784 Weather Reports


Display with metric or nautical units.
time (UTC)temp
F
wind
direction
speed
MPH
gust
MPH
rain 1hr
in
rain 24hr
in
rain mn
in
humidity
%
barometer
mb
20260507025327 61 257 5.0 12.0 0.00 0.00 0.00 86 1015.9
20260507024830 62 261 4.0 12.0 0.00 0.00 0.00 85 1015.9
20260507024606 62 254 2.0 8.0 0.00 0.00 0.00 84 1015.9
20260507024222 62 208 3.0 9.0 0.00 0.00 0.00 84 1015.8
20260507023326 62 198 3.0 9.0 0.00 0.00 0.00 84 1015.7
20260507022831 62 241 3.0 7.0 0.00 0.00 0.00 83 1015.7
20260507022328 62 0 4.0 14.0 0.00 0.00 0.00 83 1015.7
20260507021826 62 224 4.0 14.0 0.00 0.00 0.00 83 1015.7
20260507021328 63 213 4.0 11.0 0.00 0.00 0.00 83 1015.6
20260507020828 63 246 4.0 11.0 0.00 0.00 0.00 81 1015.5
20260507020659 63 0 4.0 10.0 0.00 0.00 0.00 81 1015.4
20260507015817 63 248 4.0 10.0 0.00 0.00 0.00 80 1015.3
20260507015311 64 0 4.0 10.0 0.00 0.00 0.00 79 1015.3
20260507014812 64 275 4.0 9.0 0.00 0.00 0.00 79 1015.3
20260507014636 64 185 4.0 9.0 0.00 0.00 0.00 79 1015.4
20260507013807 64 219 4.0 10.0 0.00 0.00 0.00 78 1015.4
20260507013309 64 200 4.0 10.0 0.00 0.00 0.00 78 1015.4
20260507012808 64 0 5.0 11.0 0.00 0.00 0.00 78 1015.4
20260507012306 65 225 5.0 11.0 0.00 0.00 0.00 79 1015.5
20260507012119 65 280 4.0 13.0 0.00 0.00 0.00 78 1015.4
20260507011306 65 230 5.0 13.0 0.00 0.00 0.00 78 1015.3
20260507010802 65 197 5.0 11.0 0.00 0.00 0.00 78 1015.3
20260507010302 66 267 4.0 11.0 0.00 0.00 0.00 78 1015.3
20260507010113 66 253 5.0 10.0 0.00 0.00 0.00 78 1015.4
20260507005306 66 201 5.0 12.0 0.00 0.00 0.00 76 1015.3
20260507004809 66 264 6.0 12.0 0.00 0.00 0.00 77 1015.3
20260507004303 66 257 6.0 13.0 0.00 0.00 0.00 77 1015.3
20260507004148 67 0 5.0 13.0 0.00 0.00 0.00 76 1015.2
20260507003305 67 223 5.0 11.0 0.00 0.00 0.00 76 1015.3
20260507002807 67 219 4.0 11.0 0.00 0.00 0.00 76 1015.3
20260507002301 67 258 5.0 10.0 0.00 0.00 0.00 76 1015.3
20260507001805 67 0 6.0 13.0 0.00 0.00 0.00 77 1015.4
20260507001302 67 232 6.0 13.0 0.00 0.00 0.00 77 1015.5
20260507000802 67 214 5.0 12.0 0.00 0.00 0.00 77 1015.4
20260507000300 67 0 5.0 12.0 0.00 0.00 0.00 77 1015.3
20260506235759 67 250 6.0 10.0 0.00 0.00 0.00 76 1015.3
20260506235306 68 0 5.0 12.0 0.00 0.00 0.00 75 1015.3
20260506234802 67 0 5.0 12.0 0.00 0.00 0.00 76 1015.3
20260506234258 67 226 5.0 12.0 0.00 0.00 0.00 74 1015.3
20260506233802 68 0 5.0 12.0 0.00 0.00 0.00 76 1015.3
20260506233635 68 265 5.0 11.0 0.00 0.00 0.00 75 1015.3
20260506232800 68 197 5.0 11.0 0.00 0.00 0.00 75 1015.4
20260506232257 68 217 5.0 10.0 0.00 0.00 0.00 75 1015.4
20260506231753 68 213 5.0 12.0 0.00 0.00 0.00 74 1015.5
20260506231254 68 0 5.0 12.0 0.00 0.00 0.00 73 1015.5
20260506230758 69 0 5.0 16.0 0.00 0.00 0.00 73 1015.5
20260506230258 68 0 5.0 16.0 0.00 0.00 0.00 74 1015.5
20260506225759 69 0 5.0 14.0 0.00 0.00 0.00 72 1015.6
20260506225254 68 0 5.0 14.0 0.00 0.00 0.00 73 1015.6
20260506224755 68 0 6.0 13.0 0.00 0.00 0.00 74 1015.7
20260506224636 68 0 6.0 13.0 0.00 0.00 0.00 73 1015.7
20260506223746 68 0 5.0 12.0 0.00 0.00 0.00 72 1015.8
20260506223609 69 0 5.0 12.0 0.00 0.00 0.00 72 1015.9
20260506222744 69 0 5.0 10.0 0.00 0.00 0.00 73 1015.9
20260506222241 69 0 5.0 10.0 0.00 0.00 0.00 73 1016.0
20260506221747 69 240 5.0 11.0 0.00 0.00 0.00 70 1016.0
20260506221243 69 248 5.0 11.0 0.00 0.00 0.00 71 1015.9
20260506220744 69 155 5.0 12.0 0.00 0.00 0.00 70 1016.1
20260506220416 69 196 5.0 14.0 0.00 0.00 0.00 71 1016.2
20260506220342 69 278 5.0 12.0 0.00 0.00 0.00 71 1016.3
20260506215607 69 205 4.0 14.0 0.00 0.00 0.00 71 1016.4
20260506214740 69 0 5.0 12.0 0.00 0.00 0.00 71 1016.5
20260506214237 69 0 5.0 12.0 0.00 0.00 0.00 72 1016.7
20260506213738 69 200 5.0 12.0 0.00 0.00 0.00 72 1016.7
20260506213237 69 0 5.0 12.0 0.00 0.00 0.00 71 1016.7
20260506212739 69 0 5.0 11.0 0.00 0.00 0.00 73 1016.7
20260506212234 69 0 5.0 12.0 0.00 0.00 0.00 72 1016.6
20260506211737 69 0 5.0 12.0 0.00 0.00 0.00 71 1016.8
20260506211236 69 0 5.0 11.0 0.00 0.00 0.00 72 1016.7
20260506210734 69 223 5.0 11.0 0.00 0.00 0.00 73 1016.8
20260506210230 69 176 5.0 11.0 0.00 0.00 0.00 72 1017.0
20260506205729 68 241 5.0 11.0 0.00 0.00 0.00 73 1016.8
20260506205230 68 236 5.0 11.0 0.00 0.00 0.00 72 1016.9
20260506204732 69 0 5.0 11.0 0.00 0.00 0.00 73 1016.9
20260506204228 69 0 5.0 11.0 0.00 0.00 0.00 72 1017.0
20260506203729 69 0 5.0 13.0 0.00 0.00 0.00 73 1017.0
20260506203229 68 263 5.0 13.0 0.00 0.00 0.00 72 1017.0
20260506202731 69 194 4.0 12.0 0.00 0.00 0.00 71 1017.0
20260506202229 69 0 4.0 10.0 0.00 0.00 0.00 71 1017.1
20260506201731 69 232 5.0 11.0 0.00 0.00 0.00 73 1017.2
20260506201230 69 195 5.0 11.0 0.00 0.00 0.00 72 1017.3
20260506200734 69 0 4.0 9.0 0.00 0.00 0.00 72 1017.3
20260506200524 69 0 4.0 10.0 0.00 0.00 0.00 73 1017.3
20260506195730 68 214 5.0 12.0 0.00 0.00 0.00 73 1017.4
20260506195627 68 206 5.0 12.0 0.00 0.00 0.00 73 1017.4
20260506194725 68 0 5.0 11.0 0.00 0.00 0.00 74 1017.5
20260506194216 67 192 5.0 12.0 0.00 0.00 0.00 74 1017.6
20260506193717 67 217 5.0 12.0 0.00 0.00 0.00 73 1017.6
20260506193547 67 223 5.0 11.0 0.00 0.00 0.00 74 1017.5
20260506192717 67 209 5.0 14.0 0.00 0.00 0.00 73 1017.7
20260506192217 68 221 5.0 14.0 0.00 0.00 0.00 73 1017.7
20260506191715 68 252 5.0 10.0 0.00 0.00 0.00 72 1017.7
20260506191215 68 0 4.0 10.0 0.00 0.00 0.00 72 1017.8
20260506190716 68 296 5.0 12.0 0.00 0.00 0.00 73 1017.8
20260506190215 68 220 5.0 12.0 0.00 0.00 0.00 72 1017.8
20260506185713 68 217 4.0 8.0 0.00 0.00 0.00 73 1017.8
20260506185213 68 215 4.0 11.0 0.00 0.00 0.00 72 1017.8
20260506184713 67 219 5.0 11.0 0.00 0.00 0.00 73 1017.8
20260506184218 67 271 5.0 10.0 0.00 0.00 0.00 72 1017.8
20260506183714 67 207 4.0 10.0 0.00 0.00 0.00 72 1017.8
20260506183209 68 0 4.0 10.0 0.00 0.00 0.00 71 1017.8
20260506182709 68 180 5.0 12.0 0.00 0.00 0.00 71 1017.8
20260506182206 68 246 5.0 12.0 0.00 0.00 0.00 70 1017.9
20260506181703 68 208 4.0 8.0 0.00 0.00 0.00 71 1017.9
20260506181207 68 252 4.0 8.0 0.00 0.00 0.00 70 1017.9
20260506180703 68 250 4.0 10.0 0.00 0.00 0.00 70 1018.0
20260506180652 68 197 4.0 9.0 0.00 0.00 0.00 69 1018.0
20260506180646 68 223 5.0 10.0 0.00 0.00 0.00 71 1017.9
20260506180636 68 220 5.0 9.0 0.00 0.00 0.00 70 1018.0
20260506174703 68 207 3.0 9.0 0.00 0.00 0.00 70 1018.0
20260506174204 68 0 3.0 7.0 0.00 0.00 0.00 70 1018.0
20260506174111 68 237 3.0 8.0 0.00 0.00 0.00 69 1017.9
20260506173221 68 215 3.0 8.0 0.00 0.00 0.00 70 1017.8
20260506172715 69 256 2.0 6.0 0.00 0.00 0.00 70 1017.9
20260506172156 69 245 2.0 6.0 0.00 0.00 0.00 67 1017.8
20260506171653 69 160 2.0 6.0 0.00 0.00 0.00 67 1017.8
20260506171150 69 125 2.0 7.0 0.00 0.00 0.00 68 1017.8
20260506171038 69 100 2.0 7.0 0.00 0.00 0.00 68 1017.8
20260506170147 68 182 1.0 6.0 0.00 0.00 0.00 70 1017.8
20260506165655 67 123 1.0 3.0 0.00 0.00 0.00 71 1017.8
20260506165202 67 0 2.0 7.0 0.00 0.00 0.00 70 1017.8
20260506164657 67 118 2.0 7.0 0.00 0.00 0.00 70 1017.8
20260506164532 67 69 2.0 5.0 0.00 0.00 0.00 71 1017.8
20260506164052 67 50 2.0 5.0 0.00 0.00 0.00 73 1017.8
20260506163154 66 193 2.0 6.0 0.00 0.00 0.00 73 1017.8
20260506162650 66 166 2.0 6.0 0.00 0.00 0.00 73 1017.8
20260506162146 66 82 1.0 4.0 0.00 0.00 0.00 74 1017.9
20260506161643 65 53 1.0 4.0 0.00 0.00 0.00 75 1017.9
20260506161146 65 64 1.0 4.0 0.00 0.00 0.00 75 1017.8
20260506161036 65 200 1.0 5.0 0.00 0.00 0.00 76 1018.0
20260506160145 64 175 2.0 5.0 0.00 0.00 0.00 77 1017.9
20260506155834 64 66 2.0 6.0 0.00 0.00 0.00 78 1018.1
20260506155755 64 188 2.0 5.0 0.00 0.00 0.00 77 1017.9
20260506154641 64 168 2.0 6.0 0.00 0.00 0.00 78 1017.9
20260506154143 63 86 2.0 6.0 0.00 0.00 0.00 78 1017.9
20260506154053 63 141 2.0 7.0 0.00 0.00 0.00 79 1017.9
20260506153143 63 113 3.0 7.0 0.00 0.00 0.00 80 1017.9
20260506152640 63 168 2.0 5.0 0.00 0.00 0.00 80 1017.9
20260506152139 62 82 2.0 6.0 0.00 0.00 0.00 81 1017.9
20260506151639 62 187 2.0 6.0 0.00 0.00 0.00 81 1018.0
20260506151513 62 77 1.0 4.0 0.00 0.00 0.00 82 1018.0
20260506150639 61 109 2.0 4.0 0.00 0.00 0.00 82 1017.9
20260506150137 61 112 2.0 4.0 0.00 0.00 0.00 83 1017.9
20260506145932 60 106 2.0 5.0 0.00 0.00 0.00 83 1018.0
20260506145138 60 66 2.0 6.0 0.00 0.00 0.00 83 1018.0
20260506144638 60 114 2.0 6.0 0.00 0.00 0.00 83 1017.9
20260506144137 60 79 3.0 5.0 0.00 0.00 0.00 84 1018.0
20260506143638 60 60 3.0 8.0 0.00 0.00 0.00 84 1017.9
20260506143138 59 96 3.0 8.0 0.00 0.00 0.00 84 1018.0
20260506142638 59 60 2.0 4.0 0.00 0.00 0.00 85 1017.8
20260506142136 59 84 2.0 4.0 0.00 0.00 0.00 85 1017.9
20260506141638 58 71 2.0 4.0 0.00 0.00 0.00 86 1017.9
20260506141511 58 64 2.0 3.0 0.00 0.00 0.00 87 1017.9
20260506140952 57 69 2.0 3.0 0.00 0.00 0.00 88 1017.8
20260506140141 57 84 1.0 3.0 0.00 0.00 0.00 89 1017.7
20260506135641 56 49 0.0 2.0 0.00 0.00 0.00 90 1017.6
20260506135136 56 111 0.0 0.0 0.00 0.00 0.00 91 1017.6
20260506134637 55 111 0.0 0.0 0.00 0.00 0.00 92 1017.6
20260506134137 54 174 0.0 0.0 0.00 0.00 0.00 93 1017.7
20260506133637 54 174 0.0 0.0 0.00 0.00 0.00 93 1017.6
20260506133328 53 174 0.0 0.0 0.00 0.00 0.00 92 1017.5
20260506133239 53 174 0.0 0.0 0.00 0.00 0.00 93 1017.7
20260506132135 53 174 0.0 0.0 0.00 0.00 0.00 92 1017.4
20260506131634 53 174 0.0 0.0 0.00 0.00 0.00 92 1017.4
20260506131136 53 174 0.0 0.0 0.00 0.00 0.00 92 1017.4
20260506130634 53 174 0.0 0.0 0.00 0.00 0.00 92 1017.1
20260506130136 53 174 0.0 0.0 0.00 0.00 0.00 92 1017.1
20260506130022 53 174 0.0 0.0 0.00 0.00 0.00 92 1016.9
20260506125139 53 174 0.0 0.0 0.00 0.00 0.00 92 1017.1
20260506124631 53 174 0.0 0.0 0.00 0.00 0.00 92 1017.0
20260506124144 53 174 0.0 0.0 0.00 0.00 0.00 92 1016.9
20260506123631 53 174 0.0 0.0 0.00 0.00 0.00 92 1016.8
20260506123138 53 174 0.0 0.0 0.00 0.00 0.00 91 1016.8
20260506122630 53 174 0.0 0.0 0.00 0.00 0.00 91 1016.8
20260506122137 53 174 0.0 0.0 0.00 0.00 0.00 91 1016.8
20260506121631 53 174 0.0 0.0 0.00 0.00 0.00 91 1016.7
20260506121130 53 174 0.0 0.0 0.00 0.00 0.00 91 1016.8
20260506120624 53 174 0.0 0.0 0.00 0.00 0.00 91 1016.8
20260506120344 53 174 0.0 0.0 0.00 0.00 0.00 91 1016.7
20260506120236 53 174 0.0 0.0 0.00 0.00 0.00 91 1016.7
20260506115421 53 174 0.0 0.0 0.00 0.00 0.00 91 1016.7
20260506114621 53 174 0.0 0.0 0.00 0.00 0.00 91 1016.7
20260506114119 53 174 0.0 0.0 0.00 0.00 0.00 91 1016.7
20260506113617 53 174 0.0 0.0 0.00 0.00 0.00 91 1016.5
20260506113508 53 173 0.0 0.0 0.00 0.00 0.00 91 1016.6
20260506112614 53 174 0.0 0.0 0.00 0.00 0.00 91 1016.5
20260506112115 53 174 0.0 0.0 0.00 0.00 0.00 91 1016.5
20260506111613 53 174 0.0 0.0 0.00 0.00 0.00 91 1016.6
20260506111112 53 174 0.0 0.0 0.00 0.00 0.00 91 1016.5
20260506110614 53 174 0.0 0.0 0.00 0.00 0.00 91 1016.5
20260506110112 53 174 0.0 0.0 0.00 0.00 0.00 90 1016.5
20260506105607 53 174 0.0 0.0 0.00 0.00 0.00 90 1016.5
20260506105101 54 174 0.0 0.0 0.00 0.00 0.00 90 1016.5
20260506104602 54 174 0.0 0.0 0.00 0.00 0.00 90 1016.6
20260506104100 54 174 0.0 0.0 0.00 0.00 0.00 90 1016.6
20260506103958 54 174 0.0 0.0 0.00 0.00 0.00 90 1016.4
20260506103441 54 174 0.0 0.0 0.00 0.00 0.00 90 1016.4
20260506102552 54 174 0.0 0.0 0.00 0.00 0.00 90 1016.4
20260506102506 54 174 0.0 0.0 0.00 0.00 0.00 90 1016.4
20260506101552 54 174 0.0 0.0 0.00 0.00 0.00 90 1016.4
20260506101048 54 174 0.0 0.0 0.00 0.00 0.00 90 1016.4
20260506100935 55 174 0.0 0.0 0.00 0.00 0.00 90 1016.5
20260506100046 55 174 0.0 0.0 0.00 0.00 0.00 90 1016.4
20260506095547 54 174 0.0 0.0 0.00 0.00 0.00 89 1016.5
20260506095508 55 174 0.0 0.0 0.00 0.00 0.00 89 1016.5
20260506094544 55 174 0.0 0.0 0.00 0.00 0.00 89 1016.5
20260506094045 55 174 0.0 0.0 0.00 0.00 0.00 89 1016.6
20260506093545 55 174 0.0 0.0 0.00 0.00 0.00 89 1016.6
20260506093048 55 174 0.0 0.0 0.00 0.00 0.00 89 1016.5
20260506092540 55 174 0.0 0.0 0.00 0.00 0.00 89 1016.5
20260506092204 55 174 0.0 0.0 0.00 0.00 0.00 89 1016.6
20260506092145 55 174 0.0 0.0 0.00 0.00 0.00 89 1016.6
20260506091043 55 174 0.0 0.0 0.00 0.00 0.00 89 1016.6
20260506090536 55 174 0.0 0.0 0.00 0.00 0.00 89 1016.7
20260506090038 55 174 0.0 0.0 0.00 0.00 0.00 88 1016.8
20260506085535 55 174 0.0 0.0 0.00 0.00 0.00 88 1016.8
20260506085333 55 174 0.0 0.0 0.00 0.00 0.00 88 1016.9
20260506084539 55 174 0.0 0.0 0.00 0.00 0.00 88 1016.9
20260506084032 56 174 0.0 0.0 0.00 0.00 0.00 87 1016.8
20260506083530 56 174 0.0 0.0 0.00 0.00 0.00 87 1016.9
20260506083032 56 174 0.0 0.0 0.00 0.00 0.00 87 1017.0
20260506082530 56 174 0.0 0.0 0.00 0.00 0.00 87 1017.0
20260506082032 56 174 0.0 0.0 0.00 0.00 0.00 87 1017.0
20260506081529 56 174 0.0 0.0 0.00 0.00 0.00 86 1017.0
20260506081031 56 174 0.0 0.0 0.00 0.00 0.00 86 1017.0
20260506080530 57 174 0.0 0.0 0.00 0.00 0.00 86 1017.0
20260506073022 58 174 0.0 0.0 0.00 0.00 0.00 87 1017.1
20260506072526 58 174 0.0 0.0 0.00 0.00 0.00 87 1017.0
20260506072021 58 174 0.0 0.0 0.00 0.00 0.00 87 1017.0
20260506071519 58 174 0.0 1.0 0.00 0.00 0.00 87 1017.0
20260506071021 58 174 0.0 3.0 0.00 0.00 0.00 87 1016.9
20260506070719 58 159 0.0 4.0 0.00 0.00 0.00 87 1016.9
20260506070624 58 174 0.0 4.0 0.00 0.00 0.00 87 1016.9
20260506062509 58 269 0.0 0.0 0.00 0.00 0.00 84 1016.6
20260506062004 58 269 0.0 0.0 0.00 0.00 0.00 84 1016.6
20260506061511 58 269 0.0 0.0 0.00 0.00 0.00 83 1016.5
20260506061005 58 269 0.0 0.0 0.00 0.00 0.00 83 1016.6
20260506060501 58 269 0.0 0.0 0.00 0.00 0.00 83 1016.5
20260506060405 58 269 0.0 0.0 0.00 0.00 0.00 83 1016.5
20260506050929 60 269 1.0 2.0 0.00 0.00 0.00 80 1016.3
20260506050752 60 269 1.0 2.0 0.00 0.00 0.00 80 1016.2
20260506044931 60 275 1.0 3.0 0.00 0.00 0.00 79 1016.0
20260506044433 60 267 0.0 3.0 0.00 0.00 0.00 79 1015.8
20260506043929 60 250 1.0 4.0 0.00 0.00 0.00 78 1015.8
20260506043430 60 250 1.0 4.0 0.00 0.00 0.00 78 1015.7
20260506042931 60 222 1.0 4.0 0.00 0.00 0.00 78 1015.5
20260506042429 60 229 1.0 4.0 0.00 0.00 0.00 79 1015.6
20260506041935 60 238 0.0 3.0 0.00 0.00 0.00 79 1015.6
20260506041431 60 200 0.0 2.0 0.00 0.00 0.00 80 1015.5
20260506040930 60 236 0.0 0.0 0.00 0.00 0.00 80 1015.5
20260506040429 60 236 0.0 3.0 0.00 0.00 0.00 81 1015.5
20260506035931 61 236 1.0 3.0 0.00 0.00 0.00 81 1015.5
20260506035430 61 247 1.0 3.0 0.00 0.00 0.00 80 1015.3
20260506034933 61 247 0.0 2.0 0.00 0.00 0.00 81 1015.3
20260506034429 61 247 0.0 2.0 0.00 0.00 0.00 81 1015.2
20260506033931 61 247 1.0 3.0 0.00 0.00 0.00 82 1015.1
20260506033430 61 247 0.0 3.0 0.00 0.00 0.00 82 1015.0
20260506032932 61 247 0.0 2.0 0.00 0.00 0.00 82 1015.0
20260506032429 61 223 1.0 5.0 0.00 0.00 0.00 82 1015.0
20260506031929 61 223 1.0 5.0 0.00 0.00 0.00 81 1014.9
20260506031433 61 258 1.0 3.0 0.00 0.00 0.00 81 1014.7
20260506030929 61 243 1.0 3.0 0.00 0.00 0.00 81 1014.7
20260506030714 61 233 2.0 4.0 0.00 0.00 0.00 81 1014.6
20260506030608 61 238 2.0 4.0 0.00 0.00 0.00 81 1014.7
20260506025440 61 267 1.0 3.0 0.00 0.00 0.00 81 1014.5